Weather History for Kodiak, AK

Change the Weather History Date:

Saturday, February 4, 2012

  Actual Average Record
Temperature  
Mean Temperature 21 °F 30 °F  
Max Temperature 35 °F 35 °F 51 °F (1985)
Min Temperature 7 °F 26 °F 0 °F (1999)
Degree Days  
Heating Degree Days 44 35  
Month to date heating degree days 161 140  
Since 1 July heating degree days 5529 5054  
Cooling Degree Days 0    
Month to date cooling degree days 0  
Year to date cooling degree days 0  
Moisture  
Dew Point 26 °F    
Average Humidity 0    
Maximum Humidity 0    
Minimum Humidity 0    
Precipitation  
Precipitation 0.00 in 0.23 in 2.72 in (1995)
Month to date precipitation 1.04 0.94  
Year to date precipitation 5.76 9.23  
Snow  
Snow 0.00 in 0.60 in 6.20 in (2009)
Month to date snowfall 7.5 2.1  
Since 1 July snowfall 97.4 36.4  
Snow Depth 32.00 in    
Sea Level Pressure  
Sea Level Pressure 29.85 in    
Wind  
Wind Speed 16 mph (East)    
Max Wind Speed 31 mph    
Max Gust Speed 38 mph    
Visibility 5 miles    
Events Rain , Snow    
T = Trace of Precipitation, MM = Missing Value Source: NWS Daily Summary

Daily Weather History Graph

Daily Weather History Graph

Search for Another Location

Airport:

Trip Planner

Search our weather history database for the weather conditions in past years. The results will help you decide how hot, cold, wet, or windy it might be!

Date:

Astronomy

Feb. 04, 2012 Rise Set
Actual Time 9:06 AM AKST 5:42 PM AKST
Civil Twilight 8:23 AM AKST 6:24 PM AKST
Nautical Twilight 7:36 AM AKST 7:11 PM AKST
Astronomical Twilight 6:51 AM AKST 7:57 PM AKST
Moon 2:23 PM AKST (2/4) 7:08 AM AKST (2/4)
Length of Visible Light 10h 01m
Length of Day
8h 35m
Waxing Gibbous, 90% of the Moon is Illuminated
Feb 4
Waxing Gibbous
Feb 7
Full
Feb 14
Last Quarter
Feb 21
New
Feb 29
First Quarter

Hourly Weather History & Observations

Time (AKST) Temp. Windchill Dew Point Humidity Pressure Visibility Wind Dir Wind Speed Gust Speed Precip Events Conditions
12:53 AM 10.0 °F - -0.0 °F 64% 29.86 in 10.0 mi Calm Calm - N/A   Scattered Clouds
1:53 AM 19.9 °F 9.3 °F 3.0 °F 48% 29.87 in 10.0 mi South 9.2 mph - N/A   Mostly Cloudy
2:53 AM 21.0 °F 14.6 °F 10.0 °F 63% 29.87 in 10.0 mi SSE 4.6 mph - N/A   Overcast
3:53 AM 25.0 °F 17.1 °F 15.1 °F 66% 29.87 in 10.0 mi ENE 6.9 mph - N/A   Overcast
4:53 AM 27.0 °F 18.7 °F 18.0 °F 69% 29.86 in 10.0 mi ESE 8.1 mph - N/A   Overcast
5:53 AM 30.9 °F 20.7 °F 21.0 °F 67% 29.87 in 10.0 mi SE 13.8 mph - N/A   Overcast
6:53 AM 34.0 °F 23.8 °F 23.0 °F 64% 29.88 in 10.0 mi SSE 16.1 mph - N/A   Overcast
7:53 AM 34.0 °F 22.1 °F 23.0 °F 64% 29.88 in 10.0 mi SSE 21.9 mph 33.4 mph N/A   Overcast
8:53 AM 34.0 °F 21.0 °F 23.0 °F 64% 29.90 in 10.0 mi SE 26.5 mph - N/A   Overcast
9:53 AM 34.0 °F 22.4 °F 24.1 °F 67% 29.94 in 10.0 mi SE 20.7 mph 28.8 mph N/A   Overcast
10:53 AM 34.0 °F 22.7 °F 25.0 °F 70% 29.94 in 10.0 mi SE 19.6 mph - N/A   Mostly Cloudy
11:53 AM 34.0 °F 22.1 °F 25.0 °F 70% 29.96 in 10.0 mi ESE 21.9 mph 31.1 mph N/A   Mostly Cloudy
12:53 PM 34.0 °F 21.3 °F 25.0 °F 70% 29.96 in 10.0 mi ESE 25.3 mph 36.8 mph N/A   Overcast
1:53 PM 34.0 °F 21.3 °F 26.1 °F 73% 29.95 in 10.0 mi East 25.3 mph - N/A   Mostly Cloudy
2:53 PM 34.0 °F 21.3 °F 25.0 °F 70% 29.93 in 10.0 mi East 25.3 mph - N/A   Mostly Cloudy
3:53 PM 34.0 °F 21.0 °F 25.0 °F 70% 29.92 in 10.0 mi East 26.5 mph 32.2 mph N/A   Overcast
4:31 PM 33.8 °F 21.6 °F 26.6 °F 75% 29.90 in 2.5 mi East 23.0 mph 34.5 mph 0.00 in Rain , Snow Rain
4:39 PM 33.8 °F 21.0 °F 26.6 °F 75% 29.90 in 1.0 mi East 25.3 mph 34.5 mph 0.00 in Rain , Snow Rain
4:53 PM 33.1 °F 23.0 °F 28.0 °F 82% 29.90 in 2.0 mi ENE 15.0 mph 32.2 mph 0.01 in Snow Light Snow
5:00 PM 33.8 °F 23.2 °F 28.4 °F 81% 29.89 in 3.0 mi ENE 17.3 mph 26.5 mph 0.01 in Snow Light Snow
5:07 PM 33.8 °F 21.9 °F 28.4 °F 81% 29.88 in 2.0 mi East 21.9 mph 29.9 mph 0.01 in Snow Light Snow
5:24 PM 33.8 °F 22.8 °F 28.4 °F 81% 29.88 in 1.5 mi ENE 18.4 mph 31.1 mph 0.02 in Snow Light Snow
5:36 PM 33.8 °F 23.2 °F 30.2 °F 87% 29.87 in 1.0 mi East 17.3 mph 25.3 mph 0.04 in Snow Light Snow
5:43 PM 33.8 °F 22.2 °F 30.2 °F 87% 29.87 in 0.8 mi ENE 20.7 mph 25.3 mph 0.05 in Snow Light Snow
5:53 PM 33.1 °F 21.9 °F 30.0 °F 89% 29.86 in 0.8 mi ENE 18.4 mph 31.1 mph 0.05 in Snow Light Snow
6:53 PM 34.0 °F 22.1 °F 30.9 °F 89% 29.83 in 1.5 mi ENE 21.9 mph 33.4 mph 0.06 in Snow Light Snow
7:03 PM 33.8 °F 21.3 °F 30.2 °F 87% 29.82 in 2.0 mi ENE 24.2 mph 32.2 mph 0.00 in Snow Light Snow
7:18 PM 33.8 °F 21.9 °F 30.2 °F 87% 29.81 in 3.0 mi ENE 21.9 mph 28.8 mph 0.00 in Snow Light Snow
7:37 PM 33.8 °F 21.3 °F 30.2 °F 87% 29.80 in 2.5 mi ENE 24.2 mph 32.2 mph 0.01 in Snow Light Snow
7:53 PM 34.0 °F 21.5 °F 32.0 °F 92% 29.80 in 2.5 mi ENE 24.2 mph 34.5 mph 0.01 in Snow Light Snow
8:20 PM 33.8 °F 21.6 °F 32.0 °F 93% 29.79 in 3.0 mi ENE 23.0 mph 31.1 mph 0.02 in Snow Light Snow
8:53 PM 35.1 °F 23.0 °F 32.0 °F 89% 29.77 in 6.0 mi ENE 24.2 mph 39.1 mph 0.02 in Snow Light Snow
9:24 PM 35.6 °F 24.0 °F 32.0 °F 87% 29.76 in 4.0 mi ENE 23.0 mph 29.9 mph 0.01 in Rain , Snow Light Rain
9:53 PM 36.0 °F 24.7 °F 33.1 °F 89% 29.76 in 2.5 mi ENE 21.9 mph 29.9 mph 0.01 in Rain Light Rain
10:18 PM 35.6 °F 24.0 °F 33.8 °F 93% 29.73 in 3.0 mi ENE 23.0 mph 32.2 mph 0.00 in Rain Light Rain
10:53 PM 37.0 °F 25.1 °F 34.0 °F 89% 29.71 in 3.0 mi ENE 26.5 mph 34.5 mph 0.01 in Rain Light Rain
11:11 PM 37.4 °F 24.8 °F 35.6 °F 93% 29.69 in 2.0 mi ENE 31.1 mph 40.3 mph 0.00 in Rain Light Rain
11:53 PM 37.0 °F 24.9 °F 35.1 °F 93% 29.68 in 2.0 mi ENE 27.6 mph 34.5 mph 0.01 in Rain Light Rain